RS-30
1 32953U 08025A 12355.45847680 .00000010 00000-0 00000 0 0 4282
2 32953 082.4991 179.3132 0018060 262.6585 097.2445 12.43030448207708
PHARMSAT
1 35002U 09028B 12226.86484473 .07728342 73476-5 57159-3 0 789
2 35002 040.4341 050.6671 0012079 300.9773 059.0492 16.39309245183554
METEOR-M
1 35865U 09049A 12355.13637253 -.00000005 00000-0 17139-4 0 672
2 35865 098.6298 045.7280 0001661 225.9793 134.1244 14.21877004169029
RS-38
1 35869U 09049E 12355.19933420 .00000043 00000-0 38902-4 0 354
2 35869 098.6247 045.7502 0003843 230.3064 129.7786 14.22105136169054
JUGNU
1 37839U 11058B 12355.15938668 .00000620 00000-0 19019-3 0 2957
2 37839 019.9593 311.5464 0019807 110.1967 250.0461 14.12114086 61566
SRMSAT
1 37841U 11058D 12354.26454615 .00000264 00000-0 00000 0 0 2967
2 37841 019.9718 325.4782 0011421 063.4779 296.6829 14.10189008 61344
RAX-2
1 37853U 11061D 12355.26617832 .00008865 00000-0 68278-3 0 3766
2 37853 101.7038 120.3496 0241167 179.7771 180.3586 14.81851461 61932
AUBIESAT
1 37854U 11061E 12354.89434691 .00010245 00000-0 77357-3 0 3746
2 37854 101.7068 120.3317 0241571 179.8836 180.2462 14.82390359 61881
HRBE
1 37855U 11061F 12355.33617142 .00009638 00000-0 72985-3 0 3714
2 37855 101.7068 120.8530 0242707 178.8274 181.3546 14.82158486 61946
RS-39
1 38051U 11062C 12355.38581315 .00012067 00000-0 44587-3 0 07
2 38051 051.6376 350.2824 0012706 349.0404 155.8651 15.28058007 50407
E-STAR
1 38079U 12006C 12355.13343394 .00062795 00000-0 14148-2 0 7315
2 38079 069.4810 246.3447 0679699 010.4329 351.0006 14.30186190 44019
GOLIAT
1 38085U 12006J 12355.13535008 .00063170 00000-0 14279-2 0 7051
2 38085 069.4862 247.3787 0686048 011.0589 350.5256 14.28744208 43985
HORYU-2
1 38340U 12025D 12354.89858278 .00001538 00000-0 26171-3 0 2897
2 38340 098.1957 295.2780 0013783 100.6241 259.6549 14.70483757 31761
RS-40
1 38736U 12041D 12355.13001425 .00000010 00000-0 00000 0 0 1382
2 38736 082.4791 266.7712 0019420 002.5230 357.5948 12.42648887 18009
PROITERES
1 38756U 12047B 12355.46022101 .00000597 00000-0 98804-4 0 3375
2 38756 098.2743 063.0859 0011966 320.4999 039.5343 14.74016545 15060
AENEAS
1 38760U 0 12354.54971855 .00004392 00000-0 40463-3 0 00183
2 38760 064.6747 104.3800 0216659 262.6664 094.9825 14.79857661002369
CSSWE-D
1 38761U 0 12354.55100875 .00003655 00000-0 33900-3 0 00180
2 38761 064.6741 104.3900 0218383 262.6531 094.9704 14.79693633002389
CXBN-E
1 38762U 0 12354.54574126 .00004268 00000-0 39212-3 0 00176
2 38762 064.6740 104.3745 0218013 262.4335 095.1974 14.79821558002455
OBJECT F
1 38763U 0 12354.48039500 .00003422 00000-0 31788-3 0 00184
2 38763 064.6732 104.5792 0218697 262.7028 094.9169 14.79719629002381
CINEMA-G
1 38764U 0 12354.54639889 .00003590 00000-0 33273-3 0 00163
2 38764 064.6729 104.3603 0218353 262.7456 094.8781 14.79762851002352
CP5
1 38765U 0 12354.40578137 .00004349 00000-0 39908-3 0 00172
2 38765 064.6742 104.7477 0217486 262.4776 095.1598 14.79907854002331
RAIKO
1 38852U 98067CN 12355.21985954 .00042887 00000-0 58697-3 0 825
2 38852 051.6488 275.8700 0018038 059.8039 300.4735 15.56785346 11849
FITSAT 1
1 38853U 98067CP 12355.19406699 .00051828 00000-0 68089-3 0 794
2 38853 051.6507 275.7018 0015435 075.7800 284.4885 15.57848980 11891
TechEdSat
1 38854U 98067CQ 12355.20340013 .00074038 00000-0 88408-3 0 889
2 38854 051.6464 275.0140 0015647 081.6445 278.6316 15.60214634 11902
F 1
1 38855U 98067CR 12355.78658609 .00068938 00000-0 82882-3 0 923
2 38855 051.6437 272.1539 0015825 080.5116 279.8185 15.60022689 11885
WeWish
1 38856U 98067CS 12355.16716114 .00130784 00000-0 12786-2 0 1051
2 38856 051.6452 274.0145 0017616 075.8657 284.4294 15.65036735 11801
/EX
1
0
Below are the KEPs for the three satellites launched by North Korea
on 12-12-2012 as recorded by SpaceTrack.
The frequency of the beacon is reported to be around
470 MHz.
1 39026U 12072A 12348.86955756 .00003008 00000-0 18776-3 0 131
2 39026 097.4069 037.7500 0060099 166.4036 193.8802 15.08732851 280
1 39027U 12072B 12348.80446789 .00002378 00000-0 15252-3 0 110
2 39027 097.4062 037.6817 0065774 169.3857 190.8711 15.07663963 273
1 39028U 12072C 12348.94806060 .00005971 00000-0 35425-3 0 114
2 39028 097.4497 037.8213 0052915 169.0384 269.5959 15.10522295 299
1
0
SB KEPS @ AMSAT $ORB12348.N
2Line Orbital Elements 12348.AMSAT
HR AMSAT ORBITAL ELEMENTS FOR AMATEUR SATELLITES IN NASA FORMAT
FROM WA5QGD FORT WORTH,TX December 13, 2012
BID: ORB12348.N
DECODE 2-LINE ELSETS WITH THE FOLLOWING KEY:
1 AAAAAU 00 0 0 BBBBB.BBBBBBBB .CCCCCCCC 00000-0 00000-0 0 DDDZ
2 AAAAA EEE.EEEE FFF.FFFF GGGGGGG HHH.HHHH III.IIII JJ.JJJJJJJJKKKKKZ
KEY: A-CATALOGNUM B-EPOCHTIME C-DECAY D-ELSETNUM E-INCLINATION F-RAAN
G-ECCENTRICITY H-ARGPERIGEE I-MNANOM J-MNMOTION K-ORBITNUM Z-CHECKSUM
TO ALL RADIO AMATEURS BT
AO-07
1 07530U 74089B 12347.59022797 -.00000027 00000-0 10000-3 0 5553
2 07530 101.4146 337.9916 0011871 294.4164 065.5671 12.53593363742407
FO-29
1 24278U 96046B 12348.21684859 -.00000052 00000-0 -13436-4 0 02
2 24278 098.5839 065.4428 0349731 285.9635 070.3241 13.52992679806162
SO-33
1 25509U 98061B 12347.57285040 .00000452 00000-0 77270-4 0 3883
2 25509 031.4359 044.0717 0351828 324.3629 033.3969 14.28933793738186
RS-22
1 27939U 03042A 12348.52838038 .00000407 00000-0 85579-4 0 9915
2 27939 097.7985 180.0630 0014397 058.0842 302.1779 14.64254724492122
VO-52
1 28650U 05017B 12348.64336073 .00001371 00000-0 17212-3 0 2894
2 28650 097.5819 010.7042 0026393 168.6387 191.5450 14.83439058411576
HO-68
1 36122U 09072B 12348.74468715 -.00000044 00000-0 00000 0 0 979
2 36122 100.3378 044.2716 0007787 061.0779 299.1110 13.16300557144015
UO-11
1 14781U 84021B 12347.87753899 .00000518 00000-0 74211-4 0 498
2 14781 097.9303 045.6215 0009627 166.3147 193.8328 14.80688388546361
AO-16
1 20439U 90005D 12347.95035403 .00000103 00000-0 54019-4 0 6273
2 20439 098.4496 286.4932 0010995 354.9728 005.1346 14.32120045195585
LO-19
1 20442U 90005G 12347.87659155 .00000082 00000-0 46165-4 0 5597
2 20442 098.4184 288.8183 0011752 345.8619 014.2232 14.32334535195763
AO-27
1 22825U 93061C 12347.94328658 .00000115 00000-0 61901-4 0 2654
2 22825 098.5960 288.1515 0009193 112.9077 247.3070 14.29517250 2020
IO-26
1 22826U 93061D 12348.95936742 .00000064 00000-0 41709-4 0 213
2 22826 098.5897 289.4814 0009780 103.7949 256.4323 14.29796406 2297
GO-32
1 25397U 98043D 12347.88849459 .00000127 00000-0 74084-4 0 9472
2 25397 098.3866 318.0183 0002174 108.7533 251.3889 14.23312162749442
NO-44
1 26931U 01043C 12348.25064952 .00000113 00000-0 76094-4 0 2101
2 26931 067.0536 018.8133 0004842 261.8763 098.1786 14.29868500584846
SO-50
1 27607U 02058C 12347.85246711 .00000570 00000-0 10751-3 0 9391
2 27607 064.5572 111.3017 0069110 211.7289 147.9655 14.72676298536276
CO-55
1 27844U 03031E 12347.97180689 .00000168 00000-0 97528-4 0 5308
2 27844 098.7020 353.7559 0010522 067.4581 292.7715 14.21128574490282
CO-57
1 27848U 03031J 12348.07790166 .00000121 00000-0 76328-4 0 4797
2 27848 098.7110 353.2787 0010416 072.3452 287.8872 14.20866180490233
AO-51
1 28375U 04025K 12347.95005987 .00000210 00000-0 75719-4 0 4380
2 28375 098.1733 305.1616 0082453 219.4903 140.0182 14.41046009444513
CP3
1 31129U 07012N 12348.44659848 .00000709 00000-0 17037-3 0 3386
2 31129 097.8868 345.7294 0099627 285.8064 073.2171 14.53381896300017
CO-65
1 32785U 08021C 12348.08887742 .00001073 00000-0 13680-3 0 4951
2 32785 097.7784 044.7246 0014142 192.9890 167.0960 14.83453053250288
